Year,Month,Day,Hour,Minute,Value (Times are PST for temperature in C)
2016,07,20,08,03,17.50
2016,07,20,08,04,17.50
2016,07,20,08,05,17.60
2016,07,20,08,06,17.60
2016,07,20,08,07,17.60
2016,07,20,08,08,17.60
2016,07,20,08,09,17.60
2016,07,20,08,10,17.60
2016,07,20,08,11,17.60
2016,07,20,08,12,17.60
2016,07,20,08,13,17.60
2016,07,20,08,14,17.60
2016,07,20,08,15,17.60
2016,07,20,08,16,17.60
2016,07,20,08,17,17.60
2016,07,20,08,18,17.70
2016,07,20,08,19,17.60
2016,07,20,08,20,17.60
2016,07,20,08,21,17.60
2016,07,20,08,22,17.60
2016,07,20,08,23,17.60
2016,07,20,08,24,17.60
2016,07,20,08,25,17.60
2016,07,20,08,26,17.60
2016,07,20,08,27,17.60
2016,07,20,08,28,17.60
2016,07,20,08,29,17.60
2016,07,20,08,30,17.60
2016,07,20,08,31,17.60
2016,07,20,08,32,17.60
2016,07,20,08,33,17.70
2016,07,20,08,34,17.70
2016,07,20,08,35,17.70
2016,07,20,08,36,17.80
2016,07,20,08,37,17.80
2016,07,20,08,38,17.80
2016,07,20,08,39,17.80
2016,07,20,08,40,17.80
2016,07,20,08,41,17.80
2016,07,20,08,42,17.80
2016,07,20,08,43,17.80
2016,07,20,08,44,17.80
2016,07,20,08,45,17.90
2016,07,20,08,46,17.90
2016,07,20,08,47,18.00
2016,07,20,08,48,18.00
2016,07,20,08,49,18.10
2016,07,20,08,50,18.10
2016,07,20,08,51,18.20
2016,07,20,08,52,18.20
2016,07,20,08,53,18.20
2016,07,20,08,54,18.20
2016,07,20,08,55,18.20
2016,07,20,08,56,18.20
2016,07,20,08,57,18.30
2016,07,20,08,58,18.30
2016,07,20,08,59,18.30
2016,07,20,09,00,18.30
2016,07,20,09,01,18.40
2016,07,20,09,02,18.40
2016,07,20,09,03,18.50
2016,07,20,09,04,18.60
2016,07,20,09,05,18.70
2016,07,20,09,06,18.70
2016,07,20,09,07,18.80
2016,07,20,09,08,18.80
2016,07,20,09,09,18.80
2016,07,20,09,10,18.90
2016,07,20,09,11,18.90
2016,07,20,09,12,18.90
2016,07,20,09,13,19.00
2016,07,20,09,14,19.00
2016,07,20,09,15,19.10
2016,07,20,09,16,19.10
2016,07,20,09,17,19.10
2016,07,20,09,18,19.20
2016,07,20,09,19,19.20
2016,07,20,09,20,19.20
2016,07,20,09,21,19.30
2016,07,20,09,22,19.30
2016,07,20,09,23,19.30
2016,07,20,09,24,19.30
2016,07,20,09,25,19.30
2016,07,20,09,26,19.30
2016,07,20,09,27,19.40
2016,07,20,09,28,19.40
2016,07,20,09,29,19.40
2016,07,20,09,30,19.50
2016,07,20,09,31,19.50
2016,07,20,09,32,19.40
2016,07,20,09,33,19.40
2016,07,20,09,34,19.40
2016,07,20,09,35,19.40
2016,07,20,09,36,19.40
2016,07,20,09,37,19.40
2016,07,20,09,38,19.40
2016,07,20,09,39,19.40
2016,07,20,09,40,19.40
2016,07,20,09,41,19.40
2016,07,20,09,42,19.40
2016,07,20,09,43,19.50
2016,07,20,09,44,19.50
2016,07,20,09,45,19.50
2016,07,20,09,46,19.40
2016,07,20,09,47,19.40
2016,07,20,09,48,19.40
2016,07,20,09,49,19.50
2016,07,20,09,50,19.50
2016,07,20,09,51,19.60
2016,07,20,09,52,19.60
2016,07,20,09,53,19.60
2016,07,20,09,54,19.60
2016,07,20,09,55,19.60
2016,07,20,09,56,19.60
2016,07,20,09,57,19.70
2016,07,20,09,58,19.70
2016,07,20,09,59,19.70
2016,07,20,10,00,19.70
2016,07,20,10,01,19.80
2016,07,20,10,02,19.90
2016,07,20,10,03,19.90
2016,07,20,10,04,20.00
2016,07,20,10,05,20.10
2016,07,20,10,06,20.10
2016,07,20,10,07,20.20
2016,07,20,10,08,20.20
2016,07,20,10,09,20.20
2016,07,20,10,10,20.10
2016,07,20,10,11,20.10
2016,07,20,10,12,20.10
2016,07,20,10,13,20.10
2016,07,20,10,14,20.10
2016,07,20,10,15,20.00
2016,07,20,10,16,20.00
2016,07,20,10,17,20.00
2016,07,20,10,18,20.10
2016,07,20,10,19,20.10
2016,07,20,10,20,20.20
2016,07,20,10,21,20.20
2016,07,20,10,22,20.10
2016,07,20,10,23,20.10
2016,07,20,10,24,20.10
2016,07,20,10,25,20.00
2016,07,20,10,26,20.00
2016,07,20,10,27,20.00
2016,07,20,10,28,20.10
2016,07,20,10,29,20.10
2016,07,20,10,30,20.20
2016,07,20,10,31,20.30
2016,07,20,10,32,20.30
2016,07,20,10,33,20.40
2016,07,20,10,34,20.40
2016,07,20,10,35,20.40
2016,07,20,10,36,20.50
2016,07,20,10,37,20.50
2016,07,20,10,38,20.60
2016,07,20,10,39,20.60
2016,07,20,10,40,20.70
2016,07,20,10,41,20.70
2016,07,20,10,42,20.90
2016,07,20,10,43,21.00
2016,07,20,10,44,21.10
2016,07,20,10,45,21.10
2016,07,20,10,46,21.20
2016,07,20,10,47,21.30
2016,07,20,10,48,21.40
2016,07,20,10,49,21.50
2016,07,20,10,50,21.60
2016,07,20,10,51,21.70
2016,07,20,10,52,21.80
2016,07,20,10,53,22.00
2016,07,20,10,54,22.10
2016,07,20,10,55,22.10
2016,07,20,10,56,22.10
2016,07,20,10,57,22.10
2016,07,20,10,58,22.00
2016,07,20,10,59,21.90
2016,07,20,11,00,21.80
2016,07,20,11,01,21.70
2016,07,20,11,02,21.60
2016,07,20,11,03,21.60
2016,07,20,11,04,21.50
2016,07,20,11,05,21.40
2016,07,20,11,06,21.40
2016,07,20,11,07,21.50
2016,07,20,11,08,21.50
2016,07,20,11,09,21.60
2016,07,20,11,10,21.60
2016,07,20,11,11,21.60
2016,07,20,11,12,21.60
2016,07,20,11,13,21.70
2016,07,20,11,14,21.80
2016,07,20,11,15,21.80
2016,07,20,11,16,21.90
2016,07,20,11,17,21.90
2016,07,20,11,18,21.90
2016,07,20,11,19,22.00
2016,07,20,11,20,22.00
2016,07,20,11,21,22.10
2016,07,20,11,22,22.20
2016,07,20,11,23,22.20
2016,07,20,11,24,22.30
2016,07,20,11,25,22.30
2016,07,20,11,26,22.30
2016,07,20,11,27,22.40
2016,07,20,11,28,22.40
2016,07,20,11,29,22.50
2016,07,20,11,30,22.50
2016,07,20,11,31,22.50
2016,07,20,11,32,22.50
2016,07,20,11,33,22.50
2016,07,20,11,34,22.50
2016,07,20,11,35,22.50
2016,07,20,11,36,22.60
2016,07,20,11,37,22.60
2016,07,20,11,38,22.60
2016,07,20,11,39,22.60
2016,07,20,11,40,22.60
2016,07,20,11,41,22.70
2016,07,20,11,42,22.70
2016,07,20,11,43,22.60
2016,07,20,11,44,22.60
2016,07,20,11,45,22.60
2016,07,20,11,46,22.60
2016,07,20,11,47,22.60
2016,07,20,11,48,22.50
2016,07,20,11,49,22.30
2016,07,20,11,50,22.10
2016,07,20,11,51,21.90
2016,07,20,11,52,21.70
2016,07,20,11,53,21.60
2016,07,20,11,54,21.50
2016,07,20,11,55,21.50
2016,07,20,11,56,21.60
2016,07,20,11,57,21.60
2016,07,20,11,58,21.60
2016,07,20,11,59,21.70
2016,07,20,12,00,21.70
2016,07,20,12,01,21.70
2016,07,20,12,02,21.70
2016,07,20,12,03,21.70
2016,07,20,12,04,21.70
2016,07,20,12,05,21.70
2016,07,20,12,06,21.50
2016,07,20,12,07,21.40
2016,07,20,12,08,21.30
2016,07,20,12,09,21.20
2016,07,20,12,10,21.20
2016,07,20,12,11,21.10
2016,07,20,12,12,21.10
2016,07,20,12,13,21.00
2016,07,20,12,14,21.00
2016,07,20,12,15,21.00
2016,07,20,12,16,21.00
2016,07,20,12,17,21.00
2016,07,20,12,18,21.00
2016,07,20,12,19,21.00
2016,07,20,12,20,20.90
2016,07,20,12,21,20.90
2016,07,20,12,22,20.80
2016,07,20,12,23,20.80
2016,07,20,12,24,20.80
2016,07,20,12,25,20.80
2016,07,20,12,26,20.90
2016,07,20,12,27,20.90
2016,07,20,12,28,21.10
2016,07,20,12,29,21.20
2016,07,20,12,30,21.30
2016,07,20,12,31,21.40
2016,07,20,12,32,21.30
2016,07,20,12,33,21.30
2016,07,20,12,34,21.20
2016,07,20,12,35,21.20
2016,07,20,12,36,21.20
2016,07,20,12,37,21.20
2016,07,20,12,38,21.20
2016,07,20,12,39,21.10
2016,07,20,12,40,21.20
2016,07,20,12,41,21.20
2016,07,20,12,42,21.30
2016,07,20,12,43,21.30
2016,07,20,12,44,21.30
2016,07,20,12,45,21.30
2016,07,20,12,46,21.40
2016,07,20,12,47,21.40
2016,07,20,12,48,21.40
2016,07,20,12,49,21.50
2016,07,20,12,50,21.50
2016,07,20,12,51,21.60
2016,07,20,12,52,21.60
2016,07,20,12,53,21.60
2016,07,20,12,54,21.60
2016,07,20,12,55,21.60
2016,07,20,12,56,21.60
2016,07,20,12,57,21.60
2016,07,20,12,58,21.60
2016,07,20,12,59,21.60
2016,07,20,13,00,21.60
2016,07,20,13,01,21.60
2016,07,20,13,02,21.60
2016,07,20,13,03,21.70
2016,07,20,13,04,21.70
2016,07,20,13,05,21.70
2016,07,20,13,06,21.80
2016,07,20,13,07,21.90
2016,07,20,13,08,22.00
2016,07,20,13,09,22.10
2016,07,20,13,10,22.20
2016,07,20,13,11,22.30
2016,07,20,13,12,22.40
2016,07,20,13,13,22.40
2016,07,20,13,14,22.50
2016,07,20,13,15,22.50
2016,07,20,13,16,22.50
2016,07,20,13,17,22.50
2016,07,20,13,18,22.50
2016,07,20,13,19,22.60
2016,07,20,13,20,22.60
2016,07,20,13,21,22.70
2016,07,20,13,22,22.70
2016,07,20,13,23,22.70
2016,07,20,13,24,22.80
2016,07,20,13,25,22.90
2016,07,20,13,26,23.00
2016,07,20,13,27,23.10
2016,07,20,13,28,23.20
2016,07,20,13,29,23.30
2016,07,20,13,30,23.30
2016,07,20,13,31,23.30
2016,07,20,13,32,23.20
2016,07,20,13,33,23.10
2016,07,20,13,34,23.00
2016,07,20,13,35,23.00
2016,07,20,13,36,22.90
2016,07,20,13,37,22.80
2016,07,20,13,38,22.70
2016,07,20,13,39,22.50
2016,07,20,13,40,22.40
2016,07,20,13,41,22.40
2016,07,20,13,42,22.30
2016,07,20,13,43,22.20
2016,07,20,13,44,22.20
2016,07,20,13,45,22.20
2016,07,20,13,46,22.20
2016,07,20,13,47,22.30
2016,07,20,13,48,22.30
2016,07,20,13,49,22.40
2016,07,20,13,50,22.50
2016,07,20,13,51,22.60
2016,07,20,13,52,22.70
2016,07,20,13,53,22.70
2016,07,20,13,54,22.70
2016,07,20,13,55,22.70
2016,07,20,13,56,22.70
2016,07,20,13,57,22.70
2016,07,20,13,58,22.80
2016,07,20,13,59,22.70
2016,07,20,14,00,22.70
2016,07,20,14,01,22.70
2016,07,20,14,02,22.70
2016,07,20,14,03,22.60
2016,07,20,14,04,22.60
2016,07,20,14,05,22.60
2016,07,20,14,06,22.60
2016,07,20,14,07,22.60
2016,07,20,14,08,22.50
2016,07,20,14,09,22.50
2016,07,20,14,10,22.50
2016,07,20,14,11,22.40
2016,07,20,14,12,22.40
2016,07,20,14,13,22.30
2016,07,20,14,14,22.30
2016,07,20,14,15,22.30
2016,07,20,14,16,22.30
2016,07,20,14,17,22.30
2016,07,20,14,18,22.20
2016,07,20,14,19,22.20
2016,07,20,14,20,22.20
2016,07,20,14,21,22.10
2016,07,20,14,22,22.10
2016,07,20,14,23,22.20
2016,07,20,14,24,22.30
2016,07,20,14,25,22.40
2016,07,20,14,26,22.50
2016,07,20,14,27,22.60
2016,07,20,14,28,22.60
2016,07,20,14,29,22.60
2016,07,20,14,30,22.60
2016,07,20,14,31,22.60
2016,07,20,14,32,22.50
2016,07,20,14,33,22.40
2016,07,20,14,34,22.40
2016,07,20,14,35,22.40
2016,07,20,14,36,22.40
2016,07,20,14,37,22.40
2016,07,20,14,38,22.50
2016,07,20,14,39,22.50
2016,07,20,14,40,22.50
2016,07,20,14,41,22.50
2016,07,20,14,42,22.40
2016,07,20,14,43,22.40
2016,07,20,14,44,22.40
2016,07,20,14,45,22.30
2016,07,20,14,46,22.30
2016,07,20,14,47,22.30
2016,07,20,14,48,22.30
2016,07,20,14,49,22.30
2016,07,20,14,50,22.40
2016,07,20,14,51,22.50
2016,07,20,14,52,22.60
2016,07,20,14,53,22.60
2016,07,20,14,54,22.70
2016,07,20,14,55,22.70
2016,07,20,14,56,22.80
2016,07,20,14,57,22.90
2016,07,20,14,58,23.00
2016,07,20,14,59,23.10
2016,07,20,15,00,23.20
2016,07,20,15,01,23.20
2016,07,20,15,02,23.20
2016,07,20,15,03,23.10
2016,07,20,15,04,23.00
2016,07,20,15,05,23.00
2016,07,20,15,06,22.90
2016,07,20,15,07,22.80
2016,07,20,15,08,22.70
2016,07,20,15,09,22.60
2016,07,20,15,10,22.50
2016,07,20,15,11,22.40
2016,07,20,15,12,22.40
2016,07,20,15,13,22.30
2016,07,20,15,14,22.40
2016,07,20,15,15,22.40
2016,07,20,15,16,22.50
2016,07,20,15,17,22.50
2016,07,20,15,18,22.60
2016,07,20,15,19,22.60
2016,07,20,15,20,22.60
2016,07,20,15,21,22.70
2016,07,20,15,22,22.70
2016,07,20,15,23,22.70
2016,07,20,15,24,22.70
2016,07,20,15,25,22.70
2016,07,20,15,26,22.70
2016,07,20,15,27,22.70
2016,07,20,15,28,22.80
2016,07,20,15,29,22.90
2016,07,20,15,30,23.00
2016,07,20,15,31,23.00
2016,07,20,15,32,23.10
2016,07,20,15,33,23.10
2016,07,20,15,34,23.10
2016,07,20,15,35,23.10
2016,07,20,15,36,23.10
2016,07,20,15,37,23.20
2016,07,20,15,38,23.30
2016,07,20,15,39,23.40
2016,07,20,15,40,23.50
2016,07,20,15,41,23.60
2016,07,20,15,42,23.60
2016,07,20,15,43,23.70
2016,07,20,15,44,23.80
2016,07,20,15,45,23.90
2016,07,20,15,46,24.00
2016,07,20,15,47,24.00
2016,07,20,15,48,24.10
2016,07,20,15,49,24.10
2016,07,20,15,50,24.20
2016,07,20,15,51,24.30
2016,07,20,15,52,24.40
2016,07,20,15,53,24.50
2016,07,20,15,54,24.60
2016,07,20,15,55,24.60
2016,07,20,15,56,24.60
2016,07,20,15,57,24.60
2016,07,20,15,58,24.60
2016,07,20,15,59,24.60
2016,07,20,16,00,24.70
2016,07,20,16,01,24.70
2016,07,20,16,02,24.70
2016,07,20,16,03,24.70
2016,07,20,16,04,24.70
2016,07,20,16,05,24.80
2016,07,20,16,06,24.80
2016,07,20,16,07,24.90
2016,07,20,16,08,24.90
2016,07,20,16,09,25.00
2016,07,20,16,10,25.00
2016,07,20,16,11,24.90
2016,07,20,16,12,24.80
2016,07,20,16,13,24.80
2016,07,20,16,14,24.80
2016,07,20,16,15,24.80
2016,07,20,16,16,24.70
2016,07,20,16,17,24.70
2016,07,20,16,18,24.60
2016,07,20,16,19,24.60
2016,07,20,16,20,24.50
2016,07,20,16,21,24.50
2016,07,20,16,22,24.40
2016,07,20,16,23,24.30
2016,07,20,16,24,24.20
2016,07,20,16,25,24.10
2016,07,20,16,26,24.00
2016,07,20,16,27,23.90
2016,07,20,16,28,23.90
2016,07,20,16,29,23.80
2016,07,20,16,30,23.80
2016,07,20,16,31,23.70
2016,07,20,16,32,23.70
2016,07,20,16,33,23.60
2016,07,20,16,34,23.50
2016,07,20,16,35,23.50
2016,07,20,16,36,23.40
2016,07,20,16,37,23.40
2016,07,20,16,38,23.30
2016,07,20,16,39,23.20
2016,07,20,16,40,23.20
2016,07,20,16,41,23.10
2016,07,20,16,42,23.10
2016,07,20,16,43,23.10
2016,07,20,16,44,23.10
2016,07,20,16,45,23.10
2016,07,20,16,46,23.10
2016,07,20,16,47,23.00
2016,07,20,16,48,23.00
2016,07,20,16,49,22.90
2016,07,20,16,50,22.90
2016,07,20,16,51,22.90
2016,07,20,16,52,22.80
2016,07,20,16,53,22.80
2016,07,20,16,54,22.80
2016,07,20,16,55,22.80
2016,07,20,16,56,22.80
2016,07,20,16,57,22.70
2016,07,20,16,58,22.70
2016,07,20,16,59,22.70
2016,07,20,17,00,22.70
2016,07,20,17,01,22.70
2016,07,20,17,02,22.60
2016,07,20,17,03,22.60
2016,07,20,17,04,22.60
2016,07,20,17,05,22.50
2016,07,20,17,06,22.50
2016,07,20,17,07,22.50
2016,07,20,17,08,22.60
2016,07,20,17,09,22.60
2016,07,20,17,10,22.60
2016,07,20,17,11,22.60
2016,07,20,17,12,22.50
2016,07,20,17,13,22.50
2016,07,20,17,14,22.40
2016,07,20,17,15,22.40
2016,07,20,17,16,22.40
2016,07,20,17,17,22.40
2016,07,20,17,18,22.40
2016,07,20,17,19,22.40
2016,07,20,17,20,22.50
2016,07,20,17,21,22.50
2016,07,20,17,22,22.50
2016,07,20,17,23,22.50
2016,07,20,17,24,22.50
2016,07,20,17,25,22.50
2016,07,20,17,26,22.50
2016,07,20,17,27,22.40
2016,07,20,17,28,22.50
2016,07,20,17,29,22.50
2016,07,20,17,30,22.50
2016,07,20,17,31,22.50
2016,07,20,17,32,22.60
2016,07,20,17,33,22.50
2016,07,20,17,34,22.50
2016,07,20,17,35,22.40
2016,07,20,17,36,22.40
2016,07,20,17,37,22.40
2016,07,20,17,38,22.40
2016,07,20,17,39,22.30
2016,07,20,17,40,22.30
2016,07,20,17,41,22.30
2016,07,20,17,42,22.30
2016,07,20,17,43,22.30
2016,07,20,17,44,22.30
2016,07,20,17,45,22.30
2016,07,20,17,46,22.40
2016,07,20,17,47,22.40
2016,07,20,17,48,22.40
2016,07,20,17,49,22.50
2016,07,20,17,50,22.50
2016,07,20,17,51,22.50
2016,07,20,17,52,22.40
2016,07,20,17,53,22.40
2016,07,20,17,54,22.40
2016,07,20,17,55,22.30
2016,07,20,17,56,22.20
2016,07,20,17,57,22.10
2016,07,20,17,58,22.00
2016,07,20,17,59,22.00
2016,07,20,18,00,21.90
2016,07,20,18,01,21.90
2016,07,20,18,02,21.90
2016,07,20,18,03,21.80
2016,07,20,18,04,21.80
2016,07,20,18,05,21.80
2016,07,20,18,06,21.70
2016,07,20,18,07,21.70
2016,07,20,18,08,21.70
2016,07,20,18,09,21.70
2016,07,20,18,10,21.70
2016,07,20,18,11,21.70
2016,07,20,18,12,21.70
2016,07,20,18,13,21.80
2016,07,20,18,14,21.80
2016,07,20,18,15,21.80
2016,07,20,18,16,21.80
2016,07,20,18,17,21.90
2016,07,20,18,18,21.90
2016,07,20,18,19,21.90
2016,07,20,18,20,21.90
2016,07,20,18,21,21.90
2016,07,20,18,22,21.90
2016,07,20,18,23,22.00
2016,07,20,18,24,21.90
2016,07,20,18,25,21.90
2016,07,20,18,26,21.90
2016,07,20,18,27,21.90
2016,07,20,18,28,21.90
2016,07,20,18,29,21.90
2016,07,20,18,30,21.90
2016,07,20,18,31,21.90
2016,07,20,18,32,21.80
2016,07,20,18,33,21.80
2016,07,20,18,34,21.80
2016,07,20,18,35,21.80
2016,07,20,18,36,21.80
2016,07,20,18,37,21.80
2016,07,20,18,38,21.80
2016,07,20,18,39,21.80
2016,07,20,18,40,21.80
2016,07,20,18,41,21.70
2016,07,20,18,42,21.70
2016,07,20,18,43,21.70
2016,07,20,18,44,21.70
2016,07,20,18,45,21.70
2016,07,20,18,46,21.80
2016,07,20,18,47,21.70
2016,07,20,18,48,21.70
2016,07,20,18,49,21.70
2016,07,20,18,50,21.80
2016,07,20,18,51,21.80
2016,07,20,18,52,21.80
2016,07,20,18,53,21.70
2016,07,20,18,54,21.70
2016,07,20,18,55,21.70
2016,07,20,18,56,21.60
2016,07,20,18,57,21.60
2016,07,20,18,58,21.60
2016,07,20,18,59,21.70
2016,07,20,19,00,21.70
2016,07,20,19,01,21.70
2016,07,20,19,02,21.60
2016,07,20,19,03,21.60
2016,07,20,19,04,21.60
2016,07,20,19,05,21.60
2016,07,20,19,06,21.60
2016,07,20,19,07,21.60
2016,07,20,19,08,21.60
2016,07,20,19,09,21.60
2016,07,20,19,10,21.60
2016,07,20,19,11,21.60
2016,07,20,19,12,21.60
2016,07,20,19,13,21.60
2016,07,20,19,14,21.60
2016,07,20,19,15,21.60
2016,07,20,19,16,21.60
2016,07,20,19,17,21.60
2016,07,20,19,18,21.50
2016,07,20,19,19,21.50
2016,07,20,19,20,21.40
2016,07,20,19,21,21.40
2016,07,20,19,22,21.40
2016,07,20,19,23,21.40
2016,07,20,19,24,21.40
2016,07,20,19,25,21.40
2016,07,20,19,26,21.40
2016,07,20,19,27,21.40
2016,07,20,19,28,21.40
2016,07,20,19,29,21.40
2016,07,20,19,30,21.40
2016,07,20,19,31,21.40
2016,07,20,19,32,21.40
2016,07,20,19,33,21.40
